When you browse on this site, cookies collect data to enhance your experience and personalize the content and advertising you see.
Visit our Privacy Policy to learn more. By continuing to use the site, you agree to this use of cookies and data.
  • Em Portugal
  • Lista de países
  • Para 7 dias
  • Temperatura da água
  • Mapas de satélite
  • Mapa do tempo
  • Widgets de tempo
  • user-avatar
    Iniciar Sessão

    Previsão horária em Czarnocin

    Hoje, 24 Março, Domingo

    Tempo Temperatura Precipitação Vento Pressão Humidade
    00:00 +9°C° 0 mm 2 m/s 747 mmHg 65%
    01:00 +9°C° 0 mm 2 m/s 747 mmHg 77%
    02:00 +9°C° 0 mm 3 m/s 747 mmHg 81%
    03:00 +8°C° 0 mm 3 m/s 747 mmHg 86%
    04:00 +7°C° 0 mm 4 m/s 747 mmHg 91%
    05:00 +7°C° 0 mm 4 m/s 747 mmHg 88%
    06:00 +6°C° 0 mm 4 m/s 747 mmHg 86%
    07:00 +6°C° 0 mm 4 m/s 748 mmHg 81%
    08:00 +8°C° 0 mm 3 m/s 747 mmHg 73%
    09:00 +8°C° 0 mm 3 m/s 747 mmHg 66%
    10:00 +9°C° 0 mm 2 m/s 747 mmHg 59%
    11:00 +10°C° 0 mm 2 m/s 747 mmHg 52%
    12:00 +12°C° 0 mm 2 m/s 746 mmHg 46%
    13:00 +13°C° 0 mm 2 m/s 746 mmHg 40%
    14:00 +13°C° 0 mm 2 m/s 745 mmHg 38%
    15:00 +13°C° 0 mm 2 m/s 745 mmHg 37%
    16:00 +13°C° 0 mm 2 m/s 744 mmHg 36%
    17:00 +12°C° 0 mm 2 m/s 744 mmHg 38%
    18:00 +10°C° 0 mm 2 m/s 743 mmHg 41%
    19:00 +8°C° 0 mm 2 m/s 743 mmHg 44%
    20:00 +8°C° 0 mm 2 m/s 743 mmHg 44%
    21:00 +9°C° 0 mm 1 m/s 742 mmHg 44%
    22:00 +9°C° 0 mm 1 m/s 742 mmHg 45%
    23:00 +9°C° 0.1 mm 1 m/s 742 mmHg 48%

    Amanhã, 25 Março, Segunda-feira

    Tempo Temperatura Precipitação Vento Pressão Humidade
    00:00 +9°C° 0.1 mm 1 m/s 741 mmHg 51%
    01:00 +8°C° 0.1 mm 1 m/s 741 mmHg 54%
    02:00 +8°C° 0.3 mm 1 m/s 740 mmHg 60%
    03:00 +7°C° 0.3 mm 1 m/s 740 mmHg 65%
    04:00 +7°C° 0.3 mm 1 m/s 739 mmHg 70%
    05:00 +6°C° 0.1 mm 2 m/s 739 mmHg 71%
    06:00 +6°C° 0.1 mm 2 m/s 739 mmHg 72%
    07:00 +6°C° 0.1 mm 2 m/s 739 mmHg 73%
    08:00 +7°C° 0.1 mm 3 m/s 738 mmHg 68%
    09:00 +8°C° 0.1 mm 3 m/s 738 mmHg 62%
    10:00 +8°C° 0.1 mm 4 m/s 738 mmHg 57%
    11:00 +10°C° 0.3 mm 4 m/s 737 mmHg 52%
    12:00 +9°C° 0.3 mm 5 m/s 737 mmHg 46%
    13:00 +10°C° 0.3 mm 6 m/s 737 mmHg 41%
    14:00 +9°C° 0.1 mm 6 m/s 737 mmHg 44%
    15:00 +9°C° 0.1 mm 6 m/s 736 mmHg 46%
    16:00 +8°C° 0.1 mm 6 m/s 736 mmHg 48%
    17:00 +7°C° 0.1 mm 5 m/s 737 mmHg 53%
    18:00 +6°C° 0.1 mm 5 m/s 738 mmHg 59%
    19:00 +5°C° 0.1 mm 5 m/s 738 mmHg 64%
    20:00 +3°C° 0 mm 5 m/s 739 mmHg 67%
    21:00 +3°C° 0 mm 5 m/s 740 mmHg 69%
    22:00 +2°C° 0 mm 5 m/s 740 mmHg 71%
    23:00 +3°C° 0 mm 4 m/s 741 mmHg 74%

    Depois de amanhã, 26 Março, Terça-feira

    Tempo Temperatura Precipitação Vento Pressão Humidade
    00:00 +1°C° 0 mm 4 m/s 741 mmHg 78%
    01:00 +1°C° 0 mm 4 m/s 742 mmHg 81%
    02:00 +1°C° 0 mm 4 m/s 742 mmHg 84%
    03:00 0°C° 0 mm 4 m/s 743 mmHg 86%
    04:00 0°C° 0 mm 4 m/s 743 mmHg 88%
    05:00 0°C° 0 mm 4 m/s 744 mmHg 87%
    06:00 0°C° 0 mm 4 m/s 744 mmHg 85%
    07:00 0°C° 0 mm 5 m/s 745 mmHg 84%
    08:00 +1°C° 0 mm 5 m/s 745 mmHg 77%
    09:00 +2°C° 0 mm 6 m/s 745 mmHg 70%
    10:00 +3°C° 0 mm 6 m/s 745 mmHg 63%
    11:00 +5°C° 0 mm 6 m/s 745 mmHg 58%
    12:00 +6°C° 0 mm 7 m/s 745 mmHg 53%
    13:00 +8°C° 0 mm 7 m/s 744 mmHg 48%
    14:00 +7°C° 0 mm 8 m/s 744 mmHg 48%
    15:00 +7°C° 0 mm 8 m/s 743 mmHg 48%
    16:00 +7°C° 0 mm 8 m/s 743 mmHg 48%
    17:00 +6°C° 0 mm 8 m/s 744 mmHg 52%
    18:00 +5°C° 0 mm 8 m/s 744 mmHg 57%
    19:00 +2°C° 0 mm 8 m/s 745 mmHg 61%
    20:00 +3°C° 0 mm 7 m/s 745 mmHg 63%
    21:00 +3°C° 0 mm 6 m/s 746 mmHg 65%
    22:00 +2°C° 0 mm 5 m/s 746 mmHg 67%
    23:00 +3°C° 0.1 mm 4 m/s 747 mmHg 68%

    27 Março, Quarta-feira

    Tempo Temperatura Precipitação Vento Pressão Humidade
    00:00 +1°C° 0.1 mm 4 m/s 747 mmHg 69%
    01:00 +1°C° 0.1 mm 3 m/s 747 mmHg 71%
    02:00 +1°C° 0 mm 2 m/s 747 mmHg 70%
    03:00 +1°C° 0 mm 2 m/s 748 mmHg 70%
    04:00 +1°C° 0 mm 1 m/s 748 mmHg 70%
    05:00 +1°C° 0 mm 1 m/s 748 mmHg 65%
    06:00 +2°C° 0 mm 1 m/s 749 mmHg 61%
    07:00 +2°C° 0 mm 1 m/s 749 mmHg 56%
    08:00 +4°C° 0 mm 1 m/s 749 mmHg 54%
    09:00 +4°C° 0 mm 2 m/s 749 mmHg 51%
    10:00 +6°C° 0 mm 2 m/s 750 mmHg 49%
    11:00 +5°C° 0 mm 3 m/s 749 mmHg 47%
    12:00 +7°C° 0 mm 3 m/s 749 mmHg 46%
    13:00 +8°C° 0 mm 3 m/s 749 mmHg 45%
    14:00 +8°C° 0 mm 3 m/s 749 mmHg 45%
    15:00 +8°C° 0 mm 3 m/s 749 mmHg 44%
    16:00 +9°C° 0 mm 3 m/s 749 mmHg 44%
    17:00 +8°C° 0 mm 2 m/s 749 mmHg 48%
    18:00 +7°C° 0 mm 2 m/s 749 mmHg 52%
    19:00 +7°C° 0 mm 1 m/s 749 mmHg 57%
    20:00 +7°C° 0 mm 1 m/s 750 mmHg 60%
    21:00 +6°C° 0 mm 1 m/s 750 mmHg 63%
    22:00 +6°C° 0 mm 1 m/s 750 mmHg 66%
    23:00 +6°C° 0 mm 1 m/s 750 mmHg 70%

    28 Março, Quinta-feira

    Tempo Temperatura Precipitação Vento Pressão Humidade
    00:00 +5°C° 0 mm 2 m/s 750 mmHg 73%
    01:00 +5°C° 0 mm 2 m/s 750 mmHg 77%
    02:00 +4°C° 0 mm 2 m/s 750 mmHg 81%
    03:00 +4°C° 0 mm 2 m/s 750 mmHg 84%
    04:00 +3°C° 0 mm 2 m/s 750 mmHg 88%
    05:00 +4°C° 0 mm 2 m/s 751 mmHg 86%
    06:00 +5°C° 0 mm 1 m/s 751 mmHg 84%
    07:00 +6°C° 0 mm 1 m/s 751 mmHg 81%
    08:00 +7°C° 0 mm 1 m/s 752 mmHg 75%
    09:00 +9°C° 0 mm 1 m/s 752 mmHg 69%
    10:00 +10°C° 0 mm 1 m/s 752 mmHg 62%
    11:00 +11°C° 0 mm 1 m/s 752 mmHg 61%
    12:00 +11°C° 0 mm 1 m/s 752 mmHg 59%
    13:00 +11°C° 0 mm 1 m/s 752 mmHg 58%
    14:00 +12°C° 0 mm 1 m/s 752 mmHg 56%
    15:00 +12°C° 0 mm 1 m/s 752 mmHg 54%
    16:00 +12°C° 0 mm 1 m/s 752 mmHg 52%
    17:00 +11°C° 0 mm 1 m/s 752 mmHg 58%
    18:00 +10°C° 0 mm 1 m/s 752 mmHg 63%
    19:00 +9°C° 0 mm 1 m/s 752 mmHg 68%
    20:00 +8°C° 0 mm 1 m/s 753 mmHg 69%
    21:00 +8°C° 0 mm 1 m/s 753 mmHg 70%
    22:00 +8°C° 0 mm 1 m/s 753 mmHg 70%
    23:00 +8°C° 0 mm 1 m/s 753 mmHg 71%

    29 Março, Sexta-feira

    Tempo Temperatura Precipitação Vento Pressão Humidade
    00:00 +8°C° 0 mm 1 m/s 753 mmHg 72%
    01:00 +8°C° 0 mm 1 m/s 754 mmHg 73%
    02:00 +7°C° 0 mm 1 m/s 754 mmHg 76%
    03:00 +6°C° 0 mm 1 m/s 753 mmHg 79%
    04:00 +6°C° 0 mm 1 m/s 753 mmHg 82%
    05:00 +6°C° 0 mm 1 m/s 754 mmHg 79%
    06:00 +7°C° 0 mm 1 m/s 754 mmHg 77%
    07:00 +7°C° 0 mm 1 m/s 754 mmHg 74%
    08:00 +9°C° 0 mm 1 m/s 754 mmHg 69%
    09:00 +10°C° 0 mm 1 m/s 753 mmHg 63%
    10:00 +12°C° 0 mm 2 m/s 753 mmHg 58%
    11:00 +13°C° 0 mm 2 m/s 753 mmHg 54%
    12:00 +13°C° 0 mm 2 m/s 753 mmHg 51%
    13:00 +14°C° 0 mm 2 m/s 752 mmHg 47%
    14:00 +14°C° 0 mm 2 m/s 752 mmHg 46%
    15:00 +14°C° 0 mm 2 m/s 751 mmHg 45%
    16:00 +15°C° 0 mm 2 m/s 751 mmHg 45%
    17:00 +13°C° 0 mm 2 m/s 751 mmHg 50%
    18:00 +12°C° 0 mm 2 m/s 751 mmHg 55%
    19:00 +10°C° 0 mm 1 m/s 751 mmHg 61%
    20:00 +10°C° 0 mm 1 m/s 751 mmHg 63%
    21:00 +9°C° 0 mm 1 m/s 751 mmHg 66%
    22:00 +9°C° 0 mm 1 m/s 750 mmHg 68%
    23:00 +8°C° 0 mm 1 m/s 750 mmHg 70%
    Mostrar mais